sampling_time,wmo_synop_id,msc_id,stn_nam,stn_elev,lat,long,stn_typ,date_tm,rpt_typ,result_time,crnt_buoy_lat,crnt_buoy_lat_qa_summary,crnt_buoy_long,crnt_buoy_long_qa_summary,avg_air_temp_pst10mts,avg_air_temp_pst10mts_qa_summary,avg_sea_sfc_temp_pst10mts,avg_sea_sfc_temp_pst10mts_qa_summary,avg_batry_volt_pst10mts,avg_batry_volt_pst10mts_qa_summary,avg_solr_panl_crnt_pst10mts,avg_solr_panl_crnt_pst10mts_qa_summary,avg_wtr_lvl_snsr_volt_pst10mts,avg_wtr_lvl_snsr_volt_pst10mts_qa_summary,avg_wave_hgt_pst20mts,avg_wave_hgt_pst20mts_qa_summary,pk_wave_hgt_pst20mts,pk_wave_hgt_pst20mts_qa_summary,sig_wave_pd_pst20mts,sig_wave_pd_pst20mts_qa_summary,sig_wave_hgt_pst20mts,sig_wave_hgt_pst20mts_qa_summary,avg_max_wave_hgt_pst20mts,avg_max_wave_hgt_pst20mts_qa_summary,avg_max_wave_pd_pst20mts,avg_max_wave_pd_pst20mts_qa_summary,avg_wave_pd_pst20mts,avg_wave_pd_pst20mts_qa_summary,pk_wave_pd_pst20mts,pk_wave_pd_pst20mts_qa_summary,avg_stn_pres_pst10mts,avg_stn_pres_pst10mts_qa_summary,avg_wnd_spd_pst10mts,avg_wnd_spd_pst10mts_qa_summary,avg_wnd_dir_pst10mts,avg_wnd_dir_pst10mts_qa_summary,max_avg_wnd_spd_pst10mts,max_avg_wnd_spd_pst10mts_qa_summary,wnd_snsr_vert_disp,wnd_snsr_vert_disp_qa_summary,pres_tend_amt_pst3hrs,pres_tend_amt_pst3hrs_data_flag,pres_tend_char_pst3hrs,pres_tend_char_pst3hrs_data_flag,avg_mslp_pst10mts,avg_mslp_pst10mts_data_flag,avg_stn_pres_pst10mts_1,avg_stn_pres_pst10mts_1_qa_summary,avg_stn_pres_pst10mts_2,avg_stn_pres_pst10mts_2_qa_summary,avg_wnd_spd_pst10mts_1,avg_wnd_spd_pst10mts_1_qa_summary,avg_wnd_spd_pst10mts_2,avg_wnd_spd_pst10mts_2_qa_summary,avg_wnd_dir_pst10mts_1,avg_wnd_dir_pst10mts_1_qa_summary,avg_wnd_dir_pst10mts_2,avg_wnd_dir_pst10mts_2_qa_summary,max_avg_wnd_spd_pst10mts_1,max_avg_wnd_spd_pst10mts_1_qa_summary,max_avg_wnd_spd_pst10mts_2,max_avg_wnd_spd_pst10mts_2_qa_summary
2021-11-27T00:00:00Z,44490,9300300,WEST BAY OF FUNDY,0,44.66056,-66.3686,18,2021-11-27T00:00:00.000Z,108,2021-11-27T00:02:24.405Z,44.66238,100,-66.3659,100,6.6,100,10.8,100,12.5,100,0.0,100,3.5,100,0.1,100,0.4,100,3.9,100,0.2,100,0.3,100,4.4,100,3.0,100,6.9,100,993.9,100,7.9,100,263,100,11.2,100,5,100,-1.5,1,6,1,993.9,1,993.9,100,993.9,100,7.9,100,7.6,100,263,100,265,100,11.2,100,11.2,100
2021-11-27T00:10:00Z,44490,9300300,WEST BAY OF FUNDY,0,44.66056,-66.3686,18,2021-11-27T00:10:00.000Z,110,2021-11-27T00:12:27.887Z,44.66238,100,-66.36585,100,7.3,100,11.5,100,12.5,100,0.0,100,3.5,100,,-1,,-1,,-1,,-1,,-1,,-1,,-1,,-1,993.8,100,7.2,100,270,100,11.2,100,5,100,-1.6,1,6,1,993.8,1,993.8,100,993.7,100,7.2,100,7.2,100,270,100,274,100,11.2,100,10.1,100
2021-11-27T00:20:00Z,44490,9300300,WEST BAY OF FUNDY,0,44.66056,-66.3686,18,2021-11-27T00:20:00.000Z,110,2021-11-27T00:22:37.056Z,44.66237,100,-66.3658,100,6.7,100,10.9,100,12.5,100,0.0,100,3.5,100,,-1,,-1,,-1,,-1,,-1,,-1,,-1,,-1,993.6,100,7.6,100,261,100,10.4,100,5,100,-1.7,1,6,1,993.6,1,993.6,100,993.6,100,7.6,100,7.6,100,261,100,264,100,10.4,100,10.4,100
2021-11-27T00:30:00Z,44490,9300300,WEST BAY OF FUNDY,0,44.66056,-66.3686,18,2021-11-27T00:30:00.000Z,110,2021-11-27T00:32:33.417Z,44.66238,100,-66.36582,100,6.6,100,10.9,100,12.5,100,0.0,100,3.5,100,,-1,,-1,,-1,,-1,,-1,,-1,,-1,,-1,993.3,100,6.5,100,260,100,10.4,100,5,100,-2.0,1,6,1,993.3,1,993.3,100,993.3,100,6.5,100,6.1,100,260,100,263,100,10.4,100,9.7,100
2021-11-27T00:40:00Z,44490,9300300,WEST BAY OF FUNDY,0,44.66056,-66.3686,18,2021-11-27T00:40:00.000Z,110,2021-11-27T00:42:38.769Z,44.66238,100,-66.36585,100,6.6,100,10.9,100,12.5,100,0.0,100,3.5,100,,-1,,-1,,-1,,-1,,-1,,-1,,-1,,-1,993.0,100,4.3,100,300,100,7.2,100,5,100,-2.1,1,8,1,993.0,1,993.0,100,993.0,100,4.3,100,4.3,100,300,100,303,100,7.2,100,7.2,100
2021-11-27T00:50:00Z,44490,9300300,WEST BAY OF FUNDY,0,44.66056,-66.3686,18,2021-11-27T00:50:00.000Z,110,2021-11-27T00:53:44.246Z,44.66235,100,-66.36578,100,6.6,100,10.9,100,12.5,100,0.0,100,3.5,100,,-1,,-1,,-1,,-1,,-1,,-1,,-1,,-1,992.9,100,3.6,100,296,100,5.8,100,5,100,-2.1,1,8,1,992.9,1,992.9,100,992.9,100,3.6,100,3.6,100,296,100,300,100,5.8,100,5.4,100
2021-11-27T01:00:00Z,44490,9300300,WEST BAY OF FUNDY,0,44.66056,-66.3686,18,2021-11-27T01:00:00.000Z,108,2021-11-27T01:02:42.411Z,44.66235,100,-66.36578,100,6.7,100,10.9,100,12.5,100,0.0,100,3.5,100,0.1,100,0.3,100,4.6,100,0.2,100,0.3,100,5.2,100,3.4,100,7.1,100,993.0,100,2.9,100,233,100,5.0,100,5,100,-1.9,1,8,1,993.0,1,993.0,100,992.9,100,2.9,100,2.9,100,233,100,234,100,5.0,100,5.0,100
2021-11-27T01:10:00Z,44490,9300300,WEST BAY OF FUNDY,0,44.66056,-66.3686,18,2021-11-27T01:10:00.000Z,110,2021-11-27T01:15:52.415Z,44.66237,100,-66.36587,100,6.8,100,10.8,100,12.5,100,0.0,100,3.5,100,,-1,,-1,,-1,,-1,,-1,,-1,,-1,,-1,992.9,100,4.3,100,271,100,7.6,100,5,100,-1.3,1,8,1,992.9,1,992.9,100,992.9,100,4.3,100,4.0,100,271,100,274,100,7.6,100,6.8,100
2021-11-27T01:20:00Z,44490,9300300,WEST BAY OF FUNDY,0,44.66056,-66.3686,18,2021-11-27T01:20:00.000Z,110,2021-11-27T01:22:45.331Z,44.66237,100,-66.3659,100,6.9,100,10.8,100,12.5,100,0.0,100,3.5,100,,-1,,-1,,-1,,-1,,-1,,-1,,-1,,-1,992.7,100,4.0,100,290,100,6.5,100,5,100,-1.7,1,8,1,992.7,1,992.7,100,992.6,100,4.0,100,4.0,100,290,100,294,100,6.5,100,6.1,100
2021-11-27T01:30:00Z,44490,9300300,WEST BAY OF FUNDY,0,44.66056,-66.3686,18,2021-11-27T01:30:00.000Z,110,2021-11-27T01:32:46.583Z,44.66238,100,-66.36591999999999,100,6.8,100,10.9,100,12.5,100,0.0,100,3.5,100,,-1,,-1,,-1,,-1,,-1,,-1,,-1,,-1,992.4,100,4.3,100,336,100,6.5,100,5,100,-2.2,1,8,1,992.4,1,992.4,100,992.4,100,4.3,100,4.0,100,336,100,337,100,6.5,100,6.8,100
2021-11-27T01:40:00Z,44490,9300300,WEST BAY OF FUNDY,0,44.66056,-66.3686,18,2021-11-27T01:40:00.000Z,110,2021-11-27T01:42:47.306Z,44.662420000000004,100,-66.36587,100,6.8,100,10.9,100,12.5,100,0.0,100,3.5,100,,-1,,-1,,-1,,-1,,-1,,-1,,-1,,-1,992.4,100,4.0,100,339,100,7.2,100,5,100,-2.1,1,8,1,992.4,1,992.4,100,992.4,100,4.0,100,4.0,100,339,100,341,100,7.2,100,7.2,100
2021-11-27T01:50:00Z,44490,9300300,WEST BAY OF FUNDY,0,44.66056,-66.3686,18,2021-11-27T01:50:00.000Z,110,2021-11-27T01:52:50.578Z,44.6624,100,-66.36573,100,6.8,100,10.9,100,12.5,100,0.0,100,3.5,100,,-1,,-1,,-1,,-1,,-1,,-1,,-1,,-1,992.2,100,4.0,100,315,100,6.5,100,5,100,-2.2,1,8,1,992.2,1,992.2,100,992.2,100,4.0,100,4.3,100,315,100,318,100,6.5,100,6.5,100
2021-11-27T02:00:00Z,44490,9300300,WEST BAY OF FUNDY,0,44.66056,-66.3686,18,2021-11-27T02:00:00.000Z,108,2021-11-27T02:02:48.593Z,44.6624,100,-66.36563000000001,100,6.9,100,10.9,100,12.5,100,0.0,100,3.5,100,0.2,100,0.4,100,5.4,100,0.2,100,0.3,100,6.0,100,3.7,100,6.9,100,991.9,100,2.9,100,336,100,5.4,100,5,100,-2.5,1,8,1,991.9,1,991.9,100,991.8,100,2.9,100,2.9,100,336,100,337,100,5.4,100,5.4,100
2021-11-27T02:10:00Z,44490,9300300,WEST BAY OF FUNDY,0,44.66056,-66.3686,18,2021-11-27T02:10:00.000Z,110,2021-11-27T02:16:06.533Z,44.6624,100,-66.36556999999999,100,6.8,100,10.9,100,12.5,100,0.0,100,3.5,100,,-1,,-1,,-1,,-1,,-1,,-1,,-1,,-1,991.6,100,4.7,100,8,100,6.8,100,5,100,-2.6,1,8,1,991.6,1,991.6,100,991.6,100,4.7,100,4.3,100,8,100,10,100,6.8,100,6.5,100
2021-11-27T02:20:00Z,44490,9300300,WEST BAY OF FUNDY,0,44.66056,-66.3686,18,2021-11-27T02:20:00.000Z,110,2021-11-27T02:23:01.468Z,44.66237,100,-66.36573,100,6.9,100,10.9,100,12.5,100,0.0,100,3.5,100,,-1,,-1,,-1,,-1,,-1,,-1,,-1,,-1,991.6,100,2.2,100,14,100,4.0,100,5,100,-2.5,1,8,1,991.6,1,991.6,100,991.6,100,2.2,100,2.2,100,14,100,16,100,4.0,100,3.6,100
2021-11-27T02:30:00Z,44490,9300300,WEST BAY OF FUNDY,0,44.66056,-66.3686,18,2021-11-27T02:30:00.000Z,110,2021-11-27T02:33:04.382Z,44.66245,100,-66.36578,100,6.9,100,10.9,100,12.5,100,0.0,100,3.5,100,,-1,,-1,,-1,,-1,,-1,,-1,,-1,,-1,991.4,100,2.9,100,60,100,5.4,100,5,100,-2.5,1,8,1,991.4,1,991.4,100,991.4,100,2.9,100,2.9,100,60,100,62,100,5.4,100,5.4,100
2021-11-27T02:40:00Z,44490,9300300,WEST BAY OF FUNDY,0,44.66056,-66.3686,18,2021-11-27T02:40:00.000Z,110,2021-11-27T02:43:04.601Z,44.66258,100,-66.36583,100,6.9,100,10.9,100,12.5,100,0.0,100,3.5,100,,-1,,-1,,-1,,-1,,-1,,-1,,-1,,-1,991.1,100,3.6,100,60,100,6.8,100,5,100,-2.8,1,8,1,991.1,1,991.1,100,991.1,100,3.6,100,3.6,100,60,100,61,100,6.8,100,6.8,100
2021-11-27T02:50:00Z,44490,9300300,WEST BAY OF FUNDY,0,44.66056,-66.3686,18,2021-11-27T02:50:00.000Z,110,2021-11-27T02:53:07.960Z,44.6626,100,-66.36588,100,7.0,100,10.9,100,12.5,100,0.0,100,3.5,100,,-1,,-1,,-1,,-1,,-1,,-1,,-1,,-1,990.9,100,5.4,100,59,100,9.0,100,5,100,-3.2,1,8,1,990.9,1,990.9,100,990.8,100,5.4,100,5.4,100,59,100,60,100,9.0,100,9.4,100
2021-11-27T03:00:00Z,44490,9300300,WEST BAY OF FUNDY,0,44.66056,-66.3686,18,2021-11-27T03:00:00.000Z,108,2021-11-27T03:03:05.983Z,44.66268,100,-66.36593,100,7.0,100,10.9,100,12.5,100,0.0,100,3.5,100,0.2,100,0.5,100,6.4,100,0.3,100,0.4,100,6.6,100,4.7,100,6.7,100,990.6,100,9.0,100,74,100,15.1,100,5,100,-3.3,1,8,1,990.6,1,990.6,100,990.6,100,9.0,100,9.0,100,74,100,75,100,15.1,100,15.5,100
2021-11-27T03:10:00Z,44490,9300300,WEST BAY OF FUNDY,0,44.66056,-66.3686,18,2021-11-27T03:10:00.000Z,110,2021-11-27T03:16:20.501Z,44.66278,100,-66.36587,100,7.0,100,10.9,100,12.5,100,0.0,100,3.5,100,,-1,,-1,,-1,,-1,,-1,,-1,,-1,,-1,990.4,100,8.3,100,92,100,12.2,100,5,100,-3.4,1,8,1,990.4,1,990.4,100,990.4,100,8.3,100,8.6,100,92,100,93,100,12.2,100,12.6,100
2021-11-27T03:20:00Z,44490,9300300,WEST BAY OF FUNDY,0,44.66056,-66.3686,18,2021-11-27T03:20:00.000Z,110,2021-11-27T03:23:22.315Z,44.66297,100,-66.3659,100,7.1,100,10.9,100,12.5,100,0.0,100,3.5,100,,-1,,-1,,-1,,-1,,-1,,-1,,-1,,-1,990.2,100,9.7,100,81,100,12.2,100,5,100,-3.4,1,8,1,990.2,1,990.2,100,990.1,100,9.7,100,9.7,100,81,100,82,100,12.2,100,12.6,100
2021-11-27T03:30:00Z,44490,9300300,WEST BAY OF FUNDY,0,44.66056,-66.3686,18,2021-11-27T03:30:00.000Z,110,2021-11-27T03:33:30.398Z,44.66313,100,-66.36588,100,7.3,100,10.9,100,12.5,100,0.0,100,3.5,100,,-1,,-1,,-1,,-1,,-1,,-1,,-1,,-1,989.9,100,10.8,100,74,100,14.8,100,5,100,-3.4,1,8,1,989.9,1,989.9,100,989.9,100,10.8,100,10.8,100,74,100,75,100,14.8,100,14.4,100
2021-11-27T03:40:00Z,44490,9300300,WEST BAY OF FUNDY,0,44.66056,-66.3686,18,2021-11-27T03:40:00.000Z,110,2021-11-27T03:43:37.648Z,44.663470000000004,100,-66.36612,100,7.3,100,10.8,100,12.5,100,0.0,100,3.5,100,,-1,,-1,,-1,,-1,,-1,,-1,,-1,,-1,989.6,100,11.2,100,60,100,14.8,100,5,100,-3.5,1,8,1,989.6,1,989.6,100,989.5,100,11.2,100,10.8,100,60,100,62,100,14.8,100,14.8,100
2021-11-27T03:50:00Z,44490,9300300,WEST BAY OF FUNDY,0,44.66056,-66.3686,18,2021-11-27T03:50:00.000Z,110,2021-11-27T03:52:33.097Z,44.66408,100,-66.366,100,7.5,100,10.8,100,12.5,100,0.0,100,3.5,100,,-1,,-1,,-1,,-1,,-1,,-1,,-1,,-1,989.2,100,13.7,100,63,100,18.7,100,5,100,-3.8,1,8,1,989.2,1,989.2,100,989.1,100,13.7,100,13.3,100,63,100,64,100,18.7,100,18.0,100
2021-11-27T04:00:00Z,44490,9300300,WEST BAY OF FUNDY,0,44.66056,-66.3686,18,2021-11-27T04:00:00.000Z,108,2021-11-27T04:02:34.354Z,44.6647,100,-66.3653,100,7.7,100,10.9,100,12.5,100,0.0,100,3.5,100,0.2,100,0.5,100,6.1,100,0.3,100,0.4,100,6.0,100,4.7,100,6.7,100,988.9,100,14.8,100,65,100,19.4,100,5,100,-4.0,1,8,1,988.9,1,988.9,100,988.9,100,14.8,100,14.0,100,65,100,66,100,19.4,100,19.4,100
2021-11-27T04:10:00Z,44490,9300300,WEST BAY OF FUNDY,0,44.66056,-66.3686,18,2021-11-27T04:10:00.000Z,110,2021-11-27T04:15:34.351Z,44.66502,100,-66.36468,100,7.7,100,10.9,100,12.5,100,0.0,100,3.5,100,,-1,,-1,,-1,,-1,,-1,,-1,,-1,,-1,988.9,100,13.7,100,67,100,17.3,100,5,100,-4.0,1,8,1,988.9,1,988.9,100,988.9,100,13.7,100,13.3,100,67,100,69,100,17.3,100,16.6,100
2021-11-27T04:20:00Z,44490,9300300,WEST BAY OF FUNDY,0,44.66056,-66.3686,18,2021-11-27T04:20:00.000Z,110,2021-11-27T04:22:35.282Z,44.66507,100,-66.36438000000001,100,7.8,100,10.9,100,12.5,100,0.0,100,3.5,100,,-1,,-1,,-1,,-1,,-1,,-1,,-1,,-1,988.8,100,13.3,100,64,100,15.8,100,5,100,-3.9,1,8,1,988.8,1,988.8,100,988.7,100,13.3,100,12.2,100,64,100,65,100,15.8,100,15.1,100
2021-11-27T04:30:00Z,44490,9300300,WEST BAY OF FUNDY,0,44.66056,-66.3686,18,2021-11-27T04:30:00.000Z,110,2021-11-27T04:32:43.850Z,44.6651,100,-66.36428000000001,100,7.8,100,10.9,100,12.5,100,0.0,100,3.5,100,,-1,,-1,,-1,,-1,,-1,,-1,,-1,,-1,988.3,100,14.4,100,52,100,18.0,100,5,100,-4.1,1,8,1,988.3,1,988.3,100,988.3,100,14.4,100,13.3,100,52,100,53,100,18.0,100,17.3,100
2021-11-27T04:40:00Z,44490,9300300,WEST BAY OF FUNDY,0,44.66056,-66.3686,18,2021-11-27T04:40:00.000Z,110,2021-11-27T04:42:43.049Z,44.665079999999996,100,-66.36418,100,7.9,100,10.9,100,12.5,100,0.0,100,3.5,100,,-1,,-1,,-1,,-1,,-1,,-1,,-1,,-1,988.1,100,15.1,100,36,100,19.1,100,5,100,-4.4,1,8,1,988.1,1,988.1,100,988.0,100,15.1,100,15.5,100,36,100,39,100,19.1,100,19.4,100
2021-11-27T04:50:00Z,44490,9300300,WEST BAY OF FUNDY,0,44.66056,-66.3686,18,2021-11-27T04:50:00.000Z,110,2021-11-27T04:52:41.548Z,44.66508,100,-66.36417,100,7.9,100,10.9,100,12.5,100,0.0,100,3.5,100,,-1,,-1,,-1,,-1,,-1,,-1,,-1,,-1,987.7,100,17.6,100,28,100,22.3,100,5,100,-4.6,1,8,1,987.7,1,987.7,100,987.6,100,17.6,100,17.6,100,28,100,31,100,22.3,100,22.3,100
2021-11-27T05:00:00Z,44490,9300300,WEST BAY OF FUNDY,0,44.66056,-66.3686,18,2021-11-27T05:00:00.000Z,108,2021-11-27T05:03:00.144Z,44.66513,100,-66.36428000000001,100,8.1,100,11.0,100,12.5,100,0.0,100,3.5,100,0.2,100,0.6,100,5.4,100,0.3,100,0.4,100,5.7,100,3.9,100,6.3,100,987.5,100,18.4,100,40,100,21.6,100,5,100,-4.3,1,8,1,987.5,1,987.5,100,987.5,100,18.4,100,18.7,100,40,100,42,100,21.6,100,22.0,100
2021-11-27T05:10:00Z,44490,9300300,WEST BAY OF FUNDY,0,44.66056,-66.3686,18,2021-11-27T05:10:00.000Z,110,2021-11-27T05:15:58.378Z,44.66512,100,-66.3642,100,8.1,100,11.0,100,12.5,100,0.0,100,3.5,100,,-1,,-1,,-1,,-1,,-1,,-1,,-1,,-1,987.7,100,17.6,100,48,100,22.7,100,5,100,-4.0,1,7,1,987.7,1,987.7,100,987.6,100,17.6,100,18.0,100,48,100,50,100,22.7,100,23.0,100
2021-11-27T05:20:00Z,44490,9300300,WEST BAY OF FUNDY,0,44.66056,-66.3686,18,2021-11-27T05:20:00.000Z,110,2021-11-27T05:22:53.370Z,44.6651,100,-66.36417,100,8.1,100,11.0,100,12.5,100,0.0,100,3.5,100,,-1,,-1,,-1,,-1,,-1,,-1,,-1,,-1,988.1,100,16.6,100,75,100,20.2,100,5,100,-3.5,1,6,1,988.1,1,988.1,100,988.0,100,16.6,100,16.9,100,75,100,77,100,20.2,100,20.5,100
2021-11-27T05:30:00Z,44490,9300300,WEST BAY OF FUNDY,0,44.66056,-66.3686,18,2021-11-27T05:30:00.000Z,110,2021-11-27T05:32:57.836Z,44.66512,100,-66.3641,100,8.2,100,11.0,100,12.5,100,0.0,100,3.5,100,,-1,,-1,,-1,,-1,,-1,,-1,,-1,,-1,987.7,100,18.7,100,72,100,23.0,100,5,100,-3.7,1,6,1,987.7,1,987.7,100,987.7,100,18.7,100,19.1,100,72,100,74,100,23.0,100,22.7,100
2021-11-27T05:40:00Z,44490,9300300,WEST BAY OF FUNDY,0,44.66056,-66.3686,18,2021-11-27T05:40:00.000Z,110,2021-11-27T05:43:57.184Z,44.66513,100,-66.36413,100,8.5,100,10.9,100,12.5,100,0.0,100,3.5,100,,-1,,-1,,-1,,-1,,-1,,-1,,-1,,-1,987.4,100,20.2,100,104,100,24.8,100,5,100,-3.7,1,6,1,987.4,1,987.4,100,987.4,100,20.2,100,20.2,100,104,100,105,100,24.8,100,24.1,100
2021-11-27T05:50:00Z,44490,9300300,WEST BAY OF FUNDY,0,44.66056,-66.3686,18,2021-11-27T05:50:00.000Z,110,2021-11-27T05:53:03.564Z,44.66518,100,-66.36418,100,8.7,100,10.9,100,12.5,100,0.0,100,3.5,100,,-1,,-1,,-1,,-1,,-1,,-1,,-1,,-1,987.3,100,24.8,100,118,100,31.0,100,5,100,-3.5,1,6,1,987.3,1,987.3,100,987.3,100,24.8,100,22.3,100,118,100,119,100,31.0,100,29.2,100
2021-11-27T06:00:00Z,44490,9300300,WEST BAY OF FUNDY,0,44.66056,-66.3686,18,2021-11-27T06:00:00.000Z,108,2021-11-27T06:03:00.542Z,44.6652,100,-66.36426999999999,100,8.7,100,10.9,100,12.5,100,0.0,100,3.5,100,0.3,100,0.7,100,3.9,100,0.4,100,0.5,100,4.3,100,3.0,100,5.6,100,987.1,100,24.5,100,116,100,29.2,100,5,100,-3.5,1,6,1,987.1,1,987.1,100,987.0,100,24.5,100,22.7,100,116,100,117,100,29.2,100,28.4,100
2021-11-27T06:10:00Z,44490,9300300,WEST BAY OF FUNDY,0,44.66056,-66.3686,18,2021-11-27T06:10:00.000Z,110,2021-11-27T06:16:59.907Z,44.6652,100,-66.3643,100,8.7,100,10.9,100,12.5,100,0.0,100,3.5,100,,-1,,-1,,-1,,-1,,-1,,-1,,-1,,-1,986.8,100,24.8,100,109,100,29.5,100,5,100,-3.7,1,6,1,986.8,1,986.8,100,986.7,100,24.8,100,24.5,100,109,100,111,100,29.5,100,29.5,100
2021-11-27T06:20:00Z,44490,9300300,WEST BAY OF FUNDY,0,44.66056,-66.3686,18,2021-11-27T06:20:00.000Z,110,2021-11-27T06:23:03.599Z,44.66522,100,-66.36431999999999,100,8.6,100,11.0,100,12.5,100,0.0,100,3.5,100,,-1,,-1,,-1,,-1,,-1,,-1,,-1,,-1,986.6,100,24.1,100,109,100,29.5,100,5,100,-3.6,1,7,1,986.6,1,986.6,100,986.6,100,24.1,100,23.0,100,109,100,110,100,29.5,100,28.8,100
2021-11-27T06:30:00Z,44490,9300300,WEST BAY OF FUNDY,0,44.66056,-66.3686,18,2021-11-27T06:30:00.000Z,110,2021-11-27T06:33:12.071Z,44.66522,100,-66.36435,100,8.7,100,10.9,100,12.5,100,0.0,100,3.5,100,,-1,,-1,,-1,,-1,,-1,,-1,,-1,,-1,986.4,100,23.8,100,112,100,29.2,100,5,100,-3.6,1,6,1,986.4,1,986.4,100,986.3,100,23.8,100,23.0,100,112,100,113,100,29.2,100,29.9,100
2021-11-27T06:40:00Z,44490,9300300,WEST BAY OF FUNDY,0,44.66056,-66.3686,18,2021-11-27T06:40:00.000Z,110,2021-11-27T06:43:12.957Z,44.66522,100,-66.36425,100,8.6,100,11.0,100,12.5,100,0.0,100,3.5,100,,-1,,-1,,-1,,-1,,-1,,-1,,-1,,-1,986.2,100,28.8,100,139,100,46.1,100,5,100,-3.3,1,6,1,986.2,1,986.2,100,986.2,100,28.8,100,27.7,100,139,100,141,100,46.1,100,43.6,100
2021-11-27T06:50:00Z,44490,9300300,WEST BAY OF FUNDY,0,44.66056,-66.3686,18,2021-11-27T06:50:00.000Z,110,2021-11-27T06:53:16.277Z,44.66522,100,-66.36415,100,8.4,100,11.0,100,12.5,100,0.0,100,3.5,100,,-1,,-1,,-1,,-1,,-1,,-1,,-1,,-1,986.2,100,28.1,100,200,100,36.7,100,5,100,-3.0,1,6,1,986.2,1,986.2,100,986.1,100,28.1,100,27.7,100,200,100,201,100,36.7,100,37.1,100
2021-11-27T07:00:00Z,44490,9300300,WEST BAY OF FUNDY,0,44.66056,-66.3686,18,2021-11-27T07:00:00.000Z,108,2021-11-27T07:03:15.450Z,44.66522,100,-66.36417,100,8.3,100,11.0,100,12.5,100,0.0,100,3.5,100,0.4,100,0.9,100,3.5,100,0.6,100,0.7,100,3.9,100,2.9,100,5.7,100,985.8,100,34.9,100,211,100,41.4,100,5,100,-3.1,1,6,1,985.8,1,985.8,100,985.8,100,34.9,100,34.2,100,211,100,211,100,41.4,100,40.3,100
2021-11-27T07:10:00Z,44490,9300300,WEST BAY OF FUNDY,0,44.66056,-66.3686,18,2021-11-27T07:10:00.000Z,110,2021-11-27T07:15:26.541Z,44.66523,100,-66.36426999999999,100,8.3,100,10.9,100,12.5,100,0.0,100,3.5,100,,-1,,-1,,-1,,-1,,-1,,-1,,-1,,-1,985.7,100,31.0,100,208,100,36.4,100,5,100,-3.2,1,6,1,985.7,1,985.7,100,985.7,100,31.0,100,30.2,100,208,100,209,100,36.4,100,36.0,100
2021-11-27T07:20:00Z,44490,9300300,WEST BAY OF FUNDY,0,44.66056,-66.3686,18,2021-11-27T07:20:00.000Z,110,2021-11-27T07:22:20.216Z,44.66527,100,-66.36433000000001,100,8.3,100,10.9,100,12.5,100,0.0,100,3.5,100,,-1,,-1,,-1,,-1,,-1,,-1,,-1,,-1,985.7,100,30.2,100,199,100,36.4,100,5,100,-3.1,1,8,1,985.7,1,985.7,100,985.6,100,30.2,100,29.5,100,199,100,200,100,36.4,100,34.6,100
2021-11-27T07:30:00Z,44490,9300300,WEST BAY OF FUNDY,0,44.66056,-66.3686,18,2021-11-27T07:30:00.000Z,110,2021-11-27T07:32:27.759Z,44.66532,100,-66.3644,100,8.1,100,10.9,100,12.5,100,0.0,100,3.5,100,,-1,,-1,,-1,,-1,,-1,,-1,,-1,,-1,985.4,100,32.8,100,191,100,38.5,100,5,100,-2.9,1,8,1,985.4,1,985.4,100,985.4,100,32.8,100,32.0,100,191,100,192,100,38.5,100,37.8,100
2021-11-27T07:40:00Z,44490,9300300,WEST BAY OF FUNDY,0,44.66056,-66.3686,18,2021-11-27T07:40:00.000Z,110,2021-11-27T07:42:26.107Z,44.66527,100,-66.3643,100,8.1,100,11.0,100,12.5,100,0.0,100,3.5,100,,-1,,-1,,-1,,-1,,-1,,-1,,-1,,-1,985.4,100,34.2,100,188,100,39.2,100,5,100,-2.7,1,8,1,985.4,1,985.4,100,985.4,100,34.2,100,33.1,100,188,100,189,100,39.2,100,38.9,100
2021-11-27T07:50:00Z,44490,9300300,WEST BAY OF FUNDY,0,44.66056,-66.3686,18,2021-11-27T07:50:00.000Z,110,2021-11-27T07:52:35.347Z,44.66527,100,-66.36426999999999,100,8.3,100,11.1,100,12.5,100,0.0,100,3.5,100,,-1,,-1,,-1,,-1,,-1,,-1,,-1,,-1,985.3,100,33.1,100,186,100,39.2,100,5,100,-2.4,1,8,1,985.3,1,985.3,100,985.2,100,33.1,100,32.0,100,186,100,187,100,39.2,100,38.9,100
2021-11-27T08:00:00Z,44490,9300300,WEST BAY OF FUNDY,0,44.66056,-66.3686,18,2021-11-27T08:00:00.000Z,108,2021-11-27T08:02:34.298Z,44.6652,100,-66.3642,100,8.1,100,11.1,100,12.5,100,0.0,100,3.5,100,0.5,100,1.1,100,3.5,100,0.8,100,0.9,100,3.4,100,3.0,100,3.1,100,985.2,100,23.0,100,231,100,41.0,100,5,100,-2.3,1,8,1,985.2,1,985.2,100,985.2,100,23.0,100,22.7,100,231,100,232,100,41.0,100,40.7,100
2021-11-27T08:10:00Z,44490,9300300,WEST BAY OF FUNDY,0,44.66056,-66.3686,18,2021-11-27T08:10:00.000Z,110,2021-11-27T08:15:38.078Z,44.66515,100,-66.36403,100,7.6,100,11.2,100,12.5,100,0.0,100,3.5,100,,-1,,-1,,-1,,-1,,-1,,-1,,-1,,-1,985.2,100,22.0,100,287,100,31.3,100,5,100,-2.4,1,6,1,985.2,1,985.2,100,985.2,100,22.0,100,22.0,100,287,100,288,100,31.3,100,32.0,100
2021-11-27T08:20:00Z,44490,9300300,WEST BAY OF FUNDY,0,44.66056,-66.3686,18,2021-11-27T08:20:00.000Z,110,2021-11-27T08:23:36.439Z,44.66507,100,-66.36383000000001,100,6.8,100,11.2,100,12.5,100,0.0,100,3.5,100,,-1,,-1,,-1,,-1,,-1,,-1,,-1,,-1,985.2,100,31.0,100,315,100,40.0,100,5,100,-2.8,1,6,1,985.2,1,985.2,100,985.2,100,31.0,100,31.0,100,315,100,315,100,40.0,100,39.2,100
2021-11-27T08:30:00Z,44490,9300300,WEST BAY OF FUNDY,0,44.66056,-66.3686,18,2021-11-27T08:30:00.000Z,110,2021-11-27T08:32:42.510Z,44.66497,100,-66.36367,100,6.3,100,11.1,100,12.5,100,0.0,100,3.5,100,,-1,,-1,,-1,,-1,,-1,,-1,,-1,,-1,985.3,100,31.0,100,318,100,38.5,100,5,100,-2.4,1,6,1,985.3,1,985.3,100,985.3,100,31.0,100,30.6,100,318,100,319,100,38.5,100,38.2,100
2021-11-27T08:40:00Z,44490,9300300,WEST BAY OF FUNDY,0,44.66056,-66.3686,18,2021-11-27T08:40:00.000Z,110,2021-11-27T08:42:44.374Z,44.66488,100,-66.36355,100,6.0,100,11.1,100,12.5,100,0.0,100,3.5,100,,-1,,-1,,-1,,-1,,-1,,-1,,-1,,-1,985.5,100,29.9,100,320,100,38.2,100,5,100,-2.0,1,5,1,985.5,1,985.5,100,985.4,100,29.9,100,29.9,100,320,100,321,100,38.2,100,37.8,100
2021-11-27T08:50:00Z,44490,9300300,WEST BAY OF FUNDY,0,44.66056,-66.3686,18,2021-11-27T08:50:00.000Z,110,2021-11-27T08:52:48.145Z,44.66473,100,-66.36343000000001,100,5.9,100,11.1,100,12.4,100,0.0,100,3.5,100,,-1,,-1,,-1,,-1,,-1,,-1,,-1,,-1,985.5,100,30.6,100,327,100,37.4,100,5,100,-1.9,1,5,1,985.5,1,985.5,100,985.5,100,30.6,100,29.9,100,327,100,327,100,37.4,100,37.1,100
2021-11-27T09:00:00Z,44490,9300300,WEST BAY OF FUNDY,0,44.66056,-66.3686,18,2021-11-27T09:00:00.000Z,108,2021-11-27T09:02:40.924Z,44.664629999999995,100,-66.3634,100,5.7,100,11.1,100,12.5,100,0.0,100,3.5,100,0.5,100,1.4,100,3.6,100,0.8,100,1.0,100,3.6,100,3.3,100,3.6,100,985.6,100,31.3,100,322,100,38.2,100,5,100,-1.4,1,5,1,985.6,1,985.6,100,985.6,100,31.3,100,30.6,100,322,100,323,100,38.2,100,37.1,100
2021-11-27T09:10:00Z,44490,9300300,WEST BAY OF FUNDY,0,44.66056,-66.3686,18,2021-11-27T09:10:00.000Z,110,2021-11-27T09:15:54.695Z,44.66458,100,-66.3633,100,5.6,100,11.1,100,12.5,100,0.0,100,3.5,100,,-1,,-1,,-1,,-1,,-1,,-1,,-1,,-1,985.8,100,30.2,100,316,100,37.1,100,5,100,-1.0,1,5,1,985.8,1,985.8,100,985.7,100,30.2,100,29.5,100,316,100,318,100,37.1,100,36.4,100
2021-11-27T09:20:00Z,44490,9300300,WEST BAY OF FUNDY,0,44.66056,-66.3686,18,2021-11-27T09:20:00.000Z,110,2021-11-27T09:22:53.940Z,44.6644,100,-66.3633,100,5.4,100,11.1,100,12.5,100,0.0,100,3.5,100,,-1,,-1,,-1,,-1,,-1,,-1,,-1,,-1,985.9,100,28.1,100,313,100,33.8,100,5,100,-0.7,1,5,1,985.9,1,985.9,100,985.9,100,28.1,100,27.0,100,313,100,314,100,33.8,100,33.1,100
2021-11-27T09:30:00Z,44490,9300300,WEST BAY OF FUNDY,0,44.66056,-66.3686,18,2021-11-27T09:30:00.000Z,110,2021-11-27T09:33:59.390Z,44.66397,100,-66.3632,100,5.3,100,11.1,100,12.5,100,0.0,100,3.5,100,,-1,,-1,,-1,,-1,,-1,,-1,,-1,,-1,986.0,100,27.0,100,311,100,31.7,100,5,100,-0.4,1,5,1,986.0,1,986.0,100,985.9,100,27.0,100,25.9,100,311,100,312,100,31.7,100,30.6,100
2021-11-27T09:40:00Z,44490,9300300,WEST BAY OF FUNDY,0,44.66056,-66.3686,18,2021-11-27T09:40:00.000Z,110,2021-11-27T09:43:00.469Z,44.66362,100,-66.36317,100,5.2,100,11.1,100,12.5,100,0.0,100,3.5,100,,-1,,-1,,-1,,-1,,-1,,-1,,-1,,-1,986.0,100,27.4,100,312,100,34.9,100,5,100,-0.3,1,5,1,986.0,1,986.0,100,985.9,100,27.4,100,26.3,100,312,100,313,100,34.9,100,34.2,100